Weather History for KOEO - June, 2013

Change the Weather History Date:

Friday, June 21, 2013

  Actual Average (KMSP) Record (KMSP)
Temperature  
Mean Temperature 71 °F 71 °F  
Max Temperature 78 °F 81 °F 95 °F (1910)
Min Temperature 64 °F 61 °F 39 °F (1992)
Degree Days  
Heating Degree Days 0 1  
Month to date heating degree days 40  
Since 1 June heating degree days 40  
Since 1 July heating degree days 7576  
Cooling Degree Days 6 6  
Month to date cooling degree days 91  
Year to date cooling degree days 133  
Since 1 June cooling degree days 91  
Growing Degree Days 21 (Base 50)    
Moisture  
Dew Point 64 °F    
Average Humidity 78    
Maximum Humidity 95    
Minimum Humidity 61    
Precipitation  
Precipitation 1.60 in 0.15 in 2.95 in (2002)
Month to date precipitation 2.94  
Year to date precipitation 12.52  
Snow  
Snow 0.00 in 0.00 in 0.00 in ()
Month to date snowfall 0.0  
Since 1 June snowfall 0.0  
Since 1 July snowfall 54.4  
Snow Depth -    
Sea Level Pressure  
Sea Level Pressure 29.93 in    
Wind  
Wind Speed 10 mph (NNE)    
Max Wind Speed 22 mph    
Max Gust Speed 33 mph    
Visibility 10 miles    
Events Rain    
T = Trace of Precipitation, MM = Missing Value Source: NWS Daily Summary

Daily Weather History Graph

Daily Weather History Graph

Search for Another Location

Airport or City:

Trip Planner

Search our weather history database for the weather conditions in past years. The results will help you decide how hot, cold, wet, or windy it might be!

Date:

Astronomy

Jun. 21, 2013 Rise Set
Actual Time 5:22 AM CDT 9:02 PM CDT
Civil Twilight 4:45 AM CDT 9:40 PM CDT
Nautical Twilight 3:54 AM CDT 10:30 PM CDT
Astronomical Twilight 2:46 AM CDT 11:38 PM CDT
Moon 7:10 PM CDT (6/21) 3:43 AM CDT (6/21)
Length of Visible Light 16h 55m
Length of Day
15h 39m
Waxing Gibbous, 95% of the Moon is Illuminated
Jun 21
Waxing Gibbous
Jun 23
Full
Jun 29
Last Quarter
Jul 8
New
Jul 15
First Quarter

Hourly Weather History & Observations

Time (CDT) Temp. Dew Point Humidity Pressure Visibility Wind Dir Wind Speed Gust Speed Precip Events Conditions
12:15 AM 72.5 °F 64.9 °F 77% 29.94 in 10.0 mi East 15.0 mph - N/A   Clear
12:35 AM 72.5 °F 64.4 °F 76% 29.94 in 10.0 mi East 11.5 mph - N/A   Scattered Clouds
12:55 AM 73.0 °F 63.9 °F 73% 29.93 in 10.0 mi East 11.5 mph - N/A   Mostly Cloudy
1:15 AM 73.4 °F 63.5 °F 71% 29.91 in 10.0 mi ESE 18.4 mph - N/A   Overcast
1:35 AM 72.7 °F 63.5 °F 73% 29.91 in 10.0 mi ESE 13.8 mph - N/A   Overcast
1:55 AM 71.6 °F 63.7 °F 76% 29.87 in 10.0 mi East 17.3 mph 24.2 mph N/A   Mostly Cloudy
2:15 AM 71.1 °F 63.9 °F 78% 29.86 in 10.0 mi ESE 17.3 mph - N/A   Clear
2:35 AM 71.2 °F 64.0 °F 78% 29.85 in 10.0 mi ESE 17.3 mph 21.9 mph N/A   Scattered Clouds
2:55 AM 72.3 °F 63.9 °F 75% 29.82 in 10.0 mi ESE 17.3 mph 21.9 mph N/A   Overcast
3:15 AM 73.0 °F 63.9 °F 73% 29.83 in 10.0 mi ESE 16.1 mph 25.3 mph N/A   Overcast
3:35 AM 70.3 °F 65.3 °F 84% 29.83 in 7.0 mi South 18.4 mph 23.0 mph 0.04 in Rain Heavy Rain
3:55 AM 68.4 °F 66.4 °F 93% 29.80 in 2.5 mi SSE 12.7 mph 26.5 mph 0.34 in Rain Heavy Rain
4:15 AM 65.8 °F 64.4 °F 95% 29.92 in 0.5 mi NW 11.5 mph 29.9 mph 1.08 in Rain Heavy Rain
4:35 AM 65.3 °F 63.9 °F 95% 29.89 in 10.0 mi SE 4.6 mph - 1.15 in Rain Rain
4:55 AM 66.2 °F 63.9 °F 92% 29.88 in 10.0 mi West 11.5 mph 17.3 mph 1.19 in Rain Rain
5:15 AM 66.4 °F 64.4 °F 93% 29.89 in 10.0 mi WNW 12.7 mph 24.2 mph 0.03 in Rain Rain
5:35 AM 65.7 °F 63.3 °F 92% 29.91 in 10.0 mi NW 16.1 mph 25.3 mph 0.06 in Rain Rain
5:55 AM 65.1 °F 62.6 °F 92% 29.92 in 10.0 mi NNW 9.2 mph 23.0 mph 0.07 in Rain Light Rain
6:15 AM 64.8 °F 61.7 °F 90% 29.83 in 10.0 mi North 19.6 mph 24.2 mph N/A   Mostly Cloudy
6:35 AM 64.4 °F 61.2 °F 89% 29.79 in 10.0 mi NNE 13.8 mph 20.7 mph N/A   Scattered Clouds
6:55 AM 64.8 °F 61.2 °F 88% 29.72 in 10.0 mi NE 15.0 mph 23.0 mph N/A   Clear
7:15 AM 65.7 °F 60.8 °F 84% 29.84 in 10.0 mi NNE 3.5 mph - N/A   Scattered Clouds
7:35 AM 65.5 °F 61.5 °F 87% 29.83 in 10.0 mi NNE 4.6 mph - N/A   Overcast
7:55 AM 65.5 °F 61.9 °F 88% 29.82 in 10.0 mi North 4.6 mph - N/A   Mostly Cloudy
8:15 AM 66.2 °F 62.2 °F 87% 29.85 in 10.0 mi North 3.5 mph - N/A   Mostly Cloudy
8:35 AM 66.6 °F 62.2 °F 86% 29.89 in 10.0 mi West 3.5 mph - N/A   Scattered Clouds
8:55 AM 66.9 °F 63.5 °F 89% 29.93 in 10.0 mi SW 6.9 mph - N/A   Mostly Cloudy
9:15 AM 66.9 °F 63.0 °F 87% 29.93 in 10.0 mi NW 8.1 mph - N/A   Overcast
9:35 AM 67.1 °F 62.8 °F 86% 29.94 in 10.0 mi WNW 9.2 mph - N/A   Overcast
9:55 AM 66.6 °F 62.1 °F 85% 29.96 in 10.0 mi NW 6.9 mph - N/A   Overcast
10:15 AM 67.1 °F 62.6 °F 85% 29.94 in 10.0 mi NW 8.1 mph - N/A   Overcast
10:35 AM 69.1 °F 62.8 °F 80% 29.95 in 10.0 mi WNW 5.8 mph - N/A   Mostly Cloudy
10:55 AM 70.0 °F 62.8 °F 78% 29.97 in 10.0 mi West 8.1 mph - N/A   Overcast
11:15 AM 71.8 °F 64.2 °F 77% 29.96 in 10.0 mi WNW 10.4 mph - N/A   Overcast
11:35 AM 71.1 °F 63.3 °F 76% 29.96 in 10.0 mi West 9.2 mph - N/A   Overcast
11:55 AM 71.4 °F 63.0 °F 75% 29.95 in 10.0 mi NW 8.1 mph - N/A   Overcast
12:15 PM 72.9 °F 64.4 °F 75% 29.96 in 10.0 mi NNW 9.2 mph - N/A   Overcast
12:35 PM 73.6 °F 64.0 °F 72% 29.96 in 10.0 mi NNW 8.1 mph - N/A   Mostly Cloudy
12:55 PM 73.9 °F 64.0 °F 71% 29.97 in 10.0 mi WNW 6.9 mph - N/A   Mostly Cloudy
1:15 PM 73.4 °F 62.8 °F 69% 29.97 in 10.0 mi Calm Calm - N/A   Overcast
1:35 PM 74.7 °F 64.0 °F 69% 29.97 in 10.0 mi NNW 6.9 mph - N/A   Overcast
1:55 PM 74.5 °F 63.3 °F 68% 29.98 in 10.0 mi Calm Calm - N/A   Overcast
2:15 PM 74.5 °F 63.3 °F 68% 29.98 in 10.0 mi West 3.5 mph - N/A   Overcast
2:35 PM 74.5 °F 63.0 °F 67% 29.97 in 10.0 mi Calm Calm - N/A   Overcast
2:55 PM 76.3 °F 64.2 °F 66% 29.96 in 10.0 mi West 3.5 mph - N/A   Mostly Cloudy
3:15 PM 77.2 °F 64.4 °F 65% 29.96 in 10.0 mi Calm Calm - N/A   Mostly Cloudy
3:35 PM 77.5 °F 64.6 °F 64% 29.97 in 10.0 mi WSW 3.5 mph - N/A   Mostly Cloudy
3:55 PM 77.4 °F 64.6 °F 65% 29.97 in 10.0 mi NW 3.5 mph - N/A   Scattered Clouds
4:15 PM 78.6 °F 64.0 °F 61% 29.97 in 10.0 mi Calm Calm - N/A   Scattered Clouds
4:35 PM 78.3 °F 64.0 °F 61% 29.96 in 10.0 mi Calm Calm - N/A   Mostly Cloudy
4:55 PM 77.5 °F 63.7 °F 62% 29.96 in 10.0 mi NNE 3.5 mph - N/A   Overcast
5:15 PM 78.1 °F 65.1 °F 64% 29.96 in 10.0 mi ENE 4.6 mph - N/A   Scattered Clouds
5:35 PM 78.1 °F 64.8 °F 63% 29.97 in 10.0 mi North 9.2 mph - N/A   Clear
5:55 PM 78.1 °F 65.1 °F 64% 29.97 in 10.0 mi East 4.6 mph - N/A   Clear
6:15 PM 77.4 °F 65.5 °F 67% 29.98 in 10.0 mi East 4.6 mph - N/A   Scattered Clouds
6:35 PM 77.2 °F 65.7 °F 67% 29.99 in 10.0 mi ENE 4.6 mph - N/A   Mostly Cloudy
6:55 PM 76.6 °F 66.0 °F 70% 30.01 in 10.0 mi Calm Calm - N/A   Mostly Cloudy
7:15 PM 76.1 °F 65.7 °F 70% 30.02 in 10.0 mi Calm Calm - N/A   Overcast
7:35 PM 76.1 °F 65.5 °F 70% 30.02 in 10.0 mi ENE 4.6 mph - N/A   Overcast
7:55 PM 75.6 °F 65.5 °F 71% 30.06 in 10.0 mi NNW 5.8 mph - N/A   Overcast
8:15 PM 74.5 °F 66.4 °F 76% 30.07 in 10.0 mi NNW 12.7 mph - N/A   Overcast
8:35 PM 73.8 °F 65.7 °F 76% 30.11 in 10.0 mi NNW 9.2 mph - N/A   Overcast
8:55 PM 71.6 °F 66.0 °F 82% 30.10 in 10.0 mi NE 4.6 mph - N/A Rain Rain
9:15 PM 69.8 °F 66.2 °F 88% 29.99 in 10.0 mi ENE 18.4 mph 24.2 mph N/A Rain Light Rain
9:35 PM 69.8 °F 65.3 °F 86% 29.94 in 10.0 mi ENE 21.9 mph 33.4 mph N/A Rain Light Rain
9:55 PM 70.5 °F 65.1 °F 83% 29.99 in 10.0 mi South 5.8 mph 20.7 mph N/A   Scattered Clouds
10:15 PM 70.0 °F 65.7 °F 86% 29.99 in 10.0 mi SE 9.2 mph - N/A   Light Drizzle
10:35 PM 70.0 °F 65.3 °F 85% 29.97 in 10.0 mi ESE 8.1 mph 19.6 mph N/A Rain Light Rain
10:55 PM 69.6 °F 65.5 °F 87% 29.93 in 10.0 mi East 9.2 mph - N/A Rain Light Rain
11:15 PM 69.4 °F 64.8 °F 85% 29.90 in 10.0 mi ESE 3.5 mph - N/A   Scattered Clouds
11:35 PM 68.9 °F 64.9 °F 87% 29.94 in 10.0 mi SW 8.1 mph - N/A   Scattered Clouds
11:55 PM 68.7 °F 64.4 °F 86% 29.91 in 10.0 mi SE 5.8 mph - N/A   Clear